Location: *
(2.5500°S, 65.9667°W)
Time: 14:52:11
(UTC+00:00)

H-2A R/B - Pass Details

Date: 30 May 2022
Orbit: 734 x 836 km, 98.2° (Epoch: 03 July)

Event Time Altitude Azimuth Distance (km) Brightness Sun altitude
Rises 09:46:31 0° 26° (NNE) 3,359 6.1 -9.0°
Reaches altitude 10° 09:49:01 10° 34° (NNE) 2,422 5.5 -8.5°
Maximum altitude 09:54:01 40° 102° (ESE) 1,185 3.6 -7.3°
Drops below altitude 10° 09:58:56 10° 171° (S) 2,384 4.4 -6.2°
Sets 10:01:22 0° 178° (S) 3,301 5.1 -5.6°
